• în România
  • Lista ţărilor
  • Pe 7 zile
  • Temperatura apei
  • Hartă satelitară
  • Meteo pe hartă
  • Widget-uri
  • user-avatar
    Intrare

    Meteo pe oră la Ukraincev

    Astăzi, 14 Noiembrie, Miercuri

    Timp Temperatura Precipitaţii Vânt Presiune Umiditate
    00:00 -8°C° 0 mm 3 m/s 766 mmHg 32%
    01:00 -8°C° 0 mm 3 m/s 766 mmHg 33%
    02:00 -8°C° 0 mm 3 m/s 766 mmHg 34%
    03:00 -8°C° 0 mm 3 m/s 765 mmHg 34%
    04:00 -9°C° 0 mm 3 m/s 765 mmHg 35%
    05:00 -9°C° 0 mm 3 m/s 765 mmHg 36%
    06:00 -9°C° 0 mm 3 m/s 764 mmHg 37%
    07:00 -8°C° 0 mm 3 m/s 764 mmHg 36%
    08:00 -9°C° 0 mm 4 m/s 764 mmHg 36%
    09:00 -9°C° 0 mm 4 m/s 764 mmHg 36%
    10:00 -8°C° 0 mm 4 m/s 763 mmHg 36%
    11:00 -5°C° 0 mm 4 m/s 763 mmHg 36%
    12:00 -4°C° 0 mm 4 m/s 763 mmHg 36%
    13:00 -4°C° 0 mm 4 m/s 762 mmHg 38%
    14:00 -3°C° 0 mm 4 m/s 762 mmHg 40%
    15:00 -3°C° 0 mm 4 m/s 762 mmHg 42%
    16:00 -4°C° 0 mm 4 m/s 762 mmHg 46%
    17:00 -4°C° 0 mm 4 m/s 761 mmHg 51%
    18:00 -5°C° 0 mm 3 m/s 761 mmHg 55%
    19:00 -5°C° 0 mm 3 m/s 761 mmHg 56%
    20:00 -5°C° 0 mm 3 m/s 761 mmHg 57%
    21:00 -5°C° 0 mm 4 m/s 761 mmHg 57%
    22:00 -5°C° 0 mm 3 m/s 761 mmHg 56%
    23:00 -5°C° 0 mm 3 m/s 761 mmHg 55%

    Mâine, 15 Noiembrie, Joi

    Timp Temperatura Precipitaţii Vânt Presiune Umiditate
    00:00 -6°C° 0 mm 3 m/s 761 mmHg 53%
    01:00 -6°C° 0 mm 3 m/s 762 mmHg 51%
    02:00 -6°C° 0 mm 3 m/s 762 mmHg 48%
    03:00 -6°C° 0 mm 3 m/s 762 mmHg 46%
    04:00 -6°C° 0 mm 3 m/s 762 mmHg 44%
    05:00 -6°C° 0 mm 3 m/s 762 mmHg 42%
    06:00 -7°C° 0 mm 3 m/s 762 mmHg 41%
    07:00 -6°C° 0 mm 3 m/s 762 mmHg 38%
    08:00 -6°C° 0 mm 3 m/s 763 mmHg 36%
    09:00 -6°C° 0 mm 3 m/s 763 mmHg 33%
    10:00 -5°C° 0 mm 3 m/s 763 mmHg 31%
    11:00 -4°C° 0 mm 3 m/s 763 mmHg 28%
    12:00 -2°C° 0 mm 3 m/s 763 mmHg 26%
    13:00 -1°C° 0 mm 3 m/s 763 mmHg 25%
    14:00 -1°C° 0 mm 3 m/s 763 mmHg 25%
    15:00 -1°C° 0 mm 3 m/s 763 mmHg 25%
    16:00 -2°C° 0 mm 3 m/s 763 mmHg 27%
    17:00 -4°C° 0 mm 3 m/s 763 mmHg 29%
    18:00 -5°C° 0 mm 3 m/s 764 mmHg 32%
    19:00 -5°C° 0 mm 3 m/s 764 mmHg 32%
    20:00 -5°C° 0 mm 3 m/s 764 mmHg 33%
    21:00 -5°C° 0 mm 3 m/s 765 mmHg 33%
    22:00 -5°C° 0 mm 3 m/s 765 mmHg 34%
    23:00 -6°C° 0 mm 3 m/s 765 mmHg 34%

    Poimâine, 16 Noiembrie, Vineri

    Timp Temperatura Precipitaţii Vânt Presiune Umiditate
    00:00 -5°C° 0 mm 2 m/s 765 mmHg 35%
    01:00 -5°C° 0 mm 2 m/s 765 mmHg 35%
    02:00 -5°C° 0 mm 2 m/s 765 mmHg 35%
    03:00 -5°C° 0 mm 2 m/s 765 mmHg 35%
    04:00 -6°C° 0 mm 3 m/s 766 mmHg 35%
    05:00 -6°C° 0 mm 3 m/s 766 mmHg 35%
    06:00 -6°C° 0 mm 3 m/s 766 mmHg 34%
    07:00 -6°C° 0 mm 3 m/s 766 mmHg 33%
    08:00 -6°C° 0 mm 3 m/s 766 mmHg 31%
    09:00 -5°C° 0 mm 3 m/s 766 mmHg 29%
    10:00 -4°C° 0 mm 3 m/s 766 mmHg 27%
    11:00 -2°C° 0 mm 3 m/s 766 mmHg 25%
    12:00 -1°C° 0 mm 3 m/s 766 mmHg 23%
    13:00 -1°C° 0 mm 3 m/s 766 mmHg 24%
    14:00 -1°C° 0 mm 3 m/s 766 mmHg 25%
    15:00 -1°C° 0 mm 3 m/s 766 mmHg 25%
    16:00 -2°C° 0 mm 3 m/s 766 mmHg 27%
    17:00 -2°C° 0 mm 3 m/s 766 mmHg 30%
    18:00 -4°C° 0 mm 3 m/s 766 mmHg 32%
    19:00 -5°C° 0 mm 3 m/s 766 mmHg 31%
    20:00 -5°C° 0 mm 3 m/s 766 mmHg 31%
    21:00 -5°C° 0 mm 3 m/s 766 mmHg 31%
    22:00 -4°C° 0 mm 2 m/s 766 mmHg 30%
    23:00 -4°C° 0 mm 2 m/s 766 mmHg 29%

    17 Noiembrie, Sâmbătă

    Timp Temperatura Precipitaţii Vânt Presiune Umiditate
    00:00 -4°C° 0 mm 2 m/s 766 mmHg 29%
    01:00 -4°C° 0 mm 2 m/s 765 mmHg 28%
    02:00 -4°C° 0 mm 2 m/s 765 mmHg 27%
    03:00 -5°C° 0 mm 2 m/s 765 mmHg 27%
    04:00 -5°C° 0 mm 2 m/s 765 mmHg 26%
    05:00 -5°C° 0 mm 2 m/s 764 mmHg 25%
    06:00 -5°C° 0 mm 2 m/s 764 mmHg 25%
    07:00 -5°C° 0 mm 2 m/s 764 mmHg 24%
    08:00 -4°C° 0 mm 2 m/s 764 mmHg 23%
    09:00 -4°C° 0 mm 2 m/s 764 mmHg 22%
    10:00 -3°C° 0 mm 2 m/s 763 mmHg 20%
    11:00 0°C° 0 mm 1 m/s 763 mmHg 18%
    12:00 +1°C° 0 mm 1 m/s 763 mmHg 16%
    13:00 +1°C° 0 mm 1 m/s 762 mmHg 17%
    14:00 +1°C° 0 mm 1 m/s 762 mmHg 19%
    15:00 +1°C° 0 mm 1 m/s 761 mmHg 21%
    16:00 +1°C° 0 mm 1 m/s 761 mmHg 21%
    17:00 0°C° 0 mm 1 m/s 760 mmHg 22%
    18:00 -1°C° 0 mm 1 m/s 760 mmHg 23%
    19:00 -1°C° 0 mm 1 m/s 759 mmHg 23%
    20:00 -1°C° 0 mm 1 m/s 759 mmHg 23%
    21:00 -2°C° 0 mm 1 m/s 758 mmHg 23%
    22:00 -2°C° 0 mm 1 m/s 758 mmHg 23%
    23:00 -2°C° 0 mm 1 m/s 757 mmHg 23%

    18 Noiembrie, Duminică

    Timp Temperatura Precipitaţii Vânt Presiune Umiditate
    00:00 -2°C° 0 mm 1 m/s 756 mmHg 23%
    01:00 -4°C° 0 mm 2 m/s 756 mmHg 23%
    02:00 -4°C° 0 mm 2 m/s 755 mmHg 24%
    03:00 -5°C° 0 mm 2 m/s 755 mmHg 24%
    04:00 -5°C° 0 mm 2 m/s 754 mmHg 24%
    05:00 -5°C° 0 mm 2 m/s 753 mmHg 25%
    06:00 -5°C° 0 mm 2 m/s 753 mmHg 25%
    07:00 -5°C° 0 mm 2 m/s 752 mmHg 25%
    08:00 -5°C° 0 mm 2 m/s 752 mmHg 24%
    09:00 -4°C° 0 mm 2 m/s 752 mmHg 24%
    10:00 -4°C° 0 mm 3 m/s 751 mmHg 23%
    11:00 -2°C° 0 mm 3 m/s 751 mmHg 21%
    12:00 -1°C° 0 mm 3 m/s 751 mmHg 20%
    13:00 -1°C° 0 mm 3 m/s 751 mmHg 21%
    14:00 -1°C° 0 mm 3 m/s 751 mmHg 23%
    15:00 +1°C° 0 mm 2 m/s 751 mmHg 24%
    16:00 -1°C° 0 mm 2 m/s 751 mmHg 27%
    17:00 -2°C° 0 mm 2 m/s 751 mmHg 29%
    18:00 -3°C° 0 mm 2 m/s 751 mmHg 31%
    19:00 -3°C° 0 mm 2 m/s 751 mmHg 32%
    20:00 -3°C° 0 mm 2 m/s 752 mmHg 33%
    21:00 -3°C° 0 mm 2 m/s 752 mmHg 34%
    22:00 -3°C° 0 mm 2 m/s 752 mmHg 35%
    23:00 -3°C° 0 mm 2 m/s 753 mmHg 36%

    19 Noiembrie, Luni

    Timp Temperatura Precipitaţii Vânt Presiune Umiditate
    00:00 -3°C° 0 mm 2 m/s 753 mmHg 37%
    01:00 -3°C° 0 mm 2 m/s 754 mmHg 37%
    02:00 -3°C° 0 mm 2 m/s 754 mmHg 38%
    03:00 -3°C° 0 mm 2 m/s 755 mmHg 39%
    04:00 -3°C° 0 mm 2 m/s 755 mmHg 39%
    05:00 -3°C° 0 mm 2 m/s 755 mmHg 39%
    06:00 -3°C° 0 mm 2 m/s 756 mmHg 39%
    07:00 -3°C° 0 mm 2 m/s 756 mmHg 38%
    08:00 -4°C° 0 mm 3 m/s 757 mmHg 36%
    09:00 -4°C° 0 mm 3 m/s 757 mmHg 35%
    10:00 -2°C° 0 mm 3 m/s 758 mmHg 32%
    11:00 -1°C° 0 mm 3 m/s 758 mmHg 29%
    12:00 0°C° 0 mm 3 m/s 758 mmHg 27%
    13:00 0°C° 0 mm 3 m/s 759 mmHg 27%
    14:00 0°C° 0 mm 3 m/s 759 mmHg 28%
    15:00 0°C° 0 mm 3 m/s 759 mmHg 28%
    16:00 -1°C° 0 mm 3 m/s 759 mmHg 30%
    17:00 -2°C° 0 mm 3 m/s 759 mmHg 32%
    18:00 -4°C° 0 mm 3 m/s 759 mmHg 33%
    19:00 -4°C° 0 mm 3 m/s 760 mmHg 33%
    20:00 -4°C° 0 mm 3 m/s 760 mmHg 32%
    21:00 -4°C° 0 mm 3 m/s 761 mmHg 32%
    22:00 -4°C° 0 mm 3 m/s 761 mmHg 32%
    23:00 -4°C° 0 mm 3 m/s 761 mmHg 31%
    Arată mai mult